SCP
0 0 0 0 0 0 0 0 0 0 0 0 0 0 0 0 0 0 0 0 0 0 0 0 0 0 0 0 0 0 0 0 0 0 0 0 0 0 0 0 0 0 0 0
0 0 0 0 0 0 0 0 0 0 0 0 0 0 0 0 0 0 0 0 0 0 0 0 0 0 0 0 0 0 0 0 0 0 0 0 0 0 0 0 0 0 0 0
0 0 0 0 0 0 0 0 0 0 0 0 0 0 0 0 0 0 0 0 0 0 0 0 0 0 0 0 0 0 0 0 0 0 0 0 0 0 0 0 0 0 0 0
0 0 0 0 0 0 0 0 0 0 0 0 0 0 0 0 0 0 0 0 0 0 0 0 0 0 0 0 0 0 0 0 0 0 0 0 0 0 0 0 0 0 0 0
0 0 0 0 0 0 0 0 0 0 0 0 0 0 0 0 0 0 0 0 0 0 0 0 0 0 0 0 0 0 0 0 0 0 0 0 0 0 0 0 0 0 0 0
0 0 0 0 0 0 0 0 0 0 0 0 0 0 0 0 0 0 0 0 0 0 0 0 0 0 0 0 0 0 0 0 0 0 0 0 0 0 0 0 0 0 0 0
0 0 0 0 0 0 0 0 0 0 0 0 0 0 0 0 0 0 0 0 0 0 0 0 0 0 0 0 0 0 0 0 0 0 0 0 0 0 0 0 0 0 0 0
0 0 0 0 0 0 0 0 0 0 0 0 0 0 0 0 0 0 0 0 0 0 0 0 0 0 0 0 0 0 0 0 0 0 0 0 0 0 0 0 0 0 0 0
0 0 0 0 0 0 0 0 0 0 0 0 0 0 0 0 0 0 0 0 0 0 0 0 0 0 0 0 0 0 0 0 0 0 0 0 0 0 0 0 0 0 0 0
0 0 0 0 0 0 0 0 0 0 0 0 0 0 0 0 0 0 0 0 0 0 0 0 0 0 0 0 0 0 0 0 0 0 0 0 0 0 0 0 0 0 0 0
0 0 0 0 0 0 0 0 0 0 0 0 0 0 0 0 0 0 0 0 0 0 0 0 0 0 0 0 0 0 0 0 0 0 0 0 0 0 0 0 0 0 0 0
0 0 0 0 0 0 0 0 0 0 0 0 0 0 0 0 0 0 0 0 0 0 0 0 0 0 0 0 0 0 0 0 0 0 0 0 0 0 0 0 0 0 0 0
0 0 0 0 0 0 0 0 0 0 0 0 0 0 0 0 0 0 0 0 0 0 0 0 0 0 0 0 0 0 0 0 0 0 0 0 0 0 0 0 0 0 0 0
0 0 0 0 0 0 0 0 0 0 0 0 0 0 0 0 0 0 0 0 0 0 0 0 0 0 0 0 0 0 0 0 0 0 0 0 0 0 0 0 0 0 0 0
0 0 0 0 0 0 0 0 0 0 0 0 0 0 0 0 0 0 0 0 0 0 0 0 0 0 0 0 0 0 0 0 0 0 0 0 0 0 0 0 0 0 0 0
0 0 0 0 0 0 0 0 0 0 0 0 0 0 0 0 0 0 0 0 0 0 0 0 0 0 0 0 0 0 0 0 0 0 0 0 0 0 0 0 0 0 0 0
0 0 0 0 0 0 0 0 0 0 0 0 0 0 0 0 0 0 0 0 0 0 0 0 0 0 0 0 0 0 0 0 0 0 0 0 0 0 0 0 0 0 0 0
0 0 0 0 0 0 0 0 0 0 0 0 0 0 0 0 0 0 0 0 0 0 0 0 0 0 0 0 0 0 0 0 0 0 0 0 0 0 0 0 0 0 0 0
0 0 0 0 0 0 0 0 0 0 0 0 0 0 0 0 0 0 0 0 0 0 0 0 0 0 0 0 0 0 0 0 0 0 0 0 0 0 0 0 0 0 0 0
0 0 0 0 0 0 0 0 0 0 0 0 0 0 0 0 0 0 0 0 0 0 0 0 0 0 0 0 0 0 0 0 0 0 0 0 0 0 0 0 0 0 0 0
0 0 0 0 0 0 0 0 0 0 0 0 0 0 0 0 0 0 0 0 0 0 0 0 0 0 0 0 0 0 0 0 0 0 0 0 0 0 0 0 0 0 0 0
0 0 0 0 0 0 0 0 0 0 0 0 0 0 0 0 0 0 0 0 0 0 0 0 0 0 0 0 0 0 0 0 0 0 0 0 0 0 0 0 0 0 0 0
0 0 0 0 0 0 0 0 0 0 0 0 0 0 0 0 0 0 0 0 0 0 0 0 0 0 0 0 0 0 0 0 0 0 0 0 0 0 0 0 0 0 0 0
0 0 0 0 0 0 0 0 0 0 0 0 0 0 0 0 0 0 0 0 0 0 0 0 0 0 0 0 0 0 0 0 0 0 0 0 0 0 0 0 0 0 0 0
0 0 0 0 0 0 0 0 0 0 0 0 0 0 0 0 0 0 0 0 0 0 0 0 0 0 0 0 0 0 0 0 0 0 0 0 0 0 0 0 0 0 0 0
0 0 0 0 0 0 0 0 0 0 0 0 0 0 0 0 0 0 0 0 0 0 0 0 0 0 0 0 0 0 0 0 0 0 0 0 0 0 0 0 0 0 0 0
0 0 0 0 0 0 0 0 0 0 0 0 0 0 0 0 0 0 0 0 0 0 0 0 0 0 0 0 0 0 0 0 0 0 0 0 0 0 0 0 0 0 0 0
Wind_Speed
11 11 9 9 9 7 8 8 8 9 8 7 5 5 4 3 3 3 2 1 0 1 1 1 1 1 1 1 1 1 2 2 2 2 1 2 2 2 2 2 2 2 2 3
10 9 9 11 9 8 9 9 10 11 10 6 6 4 5 4 3 3 4 3 2 1 1 1 1 1 1 1 1 1 2 2 1 1 1 2 2 2 2 2 2 2 2 2
7 6 7 7 5 6 5 4 5 8 8 7 7 6 5 4 4 4 5 4 4 2 2 2 2 1 2 2 1 1 2 1 1 2 2 2 2 2 2 2 2 2 2 2
5 5 7 3 2 2 3 3 3 4 6 6 7 6 4 3 4 5 5 5 5 4 3 2 2 1 2 2 2 2 1 2 2 2 2 2 2 2 1 2 2 2 2 2
4 5 6 3 5 5 4 4 4 6 8 9 8 5 3 6 5 5 6 5 4 4 3 2 2 2 1 2 2 1 2 2 1 2 2 2 2 2 1 1 2 2 2 2
5 5 4 4 8 8 3 2 7 8 8 9 8 5 6 7 7 7 7 5 5 4 3 2 2 2 1 2 1 1 2 1 1 1 2 2 2 2 1 1 1 2 2 2
5 6 3 5 8 6 2 5 8 8 8 7 6 5 7 8 7 7 6 6 5 4 3 3 2 2 2 1 1 1 0 1 1 1 1 1 2 2 2 2 2 2 2 2
3 4 4 7 6 3 5 7 8 8 7 7 8 8 7 7 7 6 6 5 5 4 4 3 2 1 1 1 2 1 1 1 1 2 1 2 2 2 2 2 2 2 2 2
2 3 4 4 3 5 6 8 8 8 8 8 8 8 8 7 7 6 5 4 4 4 4 3 3 2 1 2 1 1 1 1 2 2 2 2 2 2 2 2 2 1 2 2
4 4 5 5 6 7 7 8 9 9 8 8 7 7 7 7 6 6 5 4 4 4 4 3 3 3 2 2 1 2 2 2 2 2 2 2 2 2 2 2 1 1 2 1
6 6 7 6 8 10 9 9 9 8 8 7 7 7 7 6 6 5 5 4 3 3 3 4 3 3 3 3 2 3 2 2 2 2 2 2 2 2 2 1 2 2 1 1
5 7 7 9 9 10 10 10 9 9 9 8 7 7 7 6 5 4 4 4 3 3 3 3 3 4 4 3 2 2 2 2 1 2 2 2 3 3 4 3 4 4 3 2
6 8 8 10 10 9 9 9 9 9 8 8 7 6 6 6 5 4 4 4 3 3 3 3 4 4 4 4 3 3 2 2 2 2 2 2 2 3 3 4 5 5 4 4
7 8 9 9 11 10 9 9 9 8 7 6 6 6 5 5 5 4 4 4 3 3 3 3 4 4 4 3 3 3 3 3 3 2 2 2 2 2 2 2 2 3 4 4
8 8 9 10 10 10 9 8 8 8 7 7 6 6 5 5 5 4 4 4 3 3 3 4 4 4 4 3 3 3 3 2 2 2 2 2 2 2 2 3 2 2 2 3
11 10 9 9 10 10 9 8 7 7 7 7 7 6 6 5 4 4 4 4 4 4 4 4 4 4 4 4 4 3 3 5 4 3 3 3 3 3 3 2 2 2 2 2
9 10 10 10 10 9 8 7 6 6 6 6 6 7 6 5 5 5 5 5 5 5 5 5 5 5 5 4 4 3 3 3 5 3 3 3 2 2 2 2 2 2 2 2
7 8 8 8 8 8 8 7 6 6 5 6 6 6 6 5 5 5 5 5 5 6 6 6 5 5 5 5 4 3 3 3 3 2 2 2 2 2 2 2 2 2 2 3
7 8 8 8 7 7 6 6 6 5 5 5 5 5 5 5 5 5 5 5 5 5 6 6 7 6 5 5 5 3 3 3 3 2 2 3 3 2 2 2 2 2 2 2
7 8 8 8 7 6 6 6 6 5 4 4 4 5 5 5 5 5 5 5 4 4 4 5 5 5 5 5 5 3 3 3 2 2 2 2 2 2 2 2 2 2 2 2
7 8 8 7 7 6 6 6 5 5 5 5 5 5 5 5 5 4 4 4 4 5 5 7 5 4 4 4 5 3 3 3 2 2 2 2 2 2 2 2 2 2 2 2
6 6 7 7 6 6 6 5 5 5 5 5 5 5 5 5 5 4 4 3 4 7 5 4 3 5 5 6 3 3 3 2 2 2 1 1 1 1 1 2 2 2 2 2
5 5 6 6 6 6 6 5 5 4 5 5 5 5 5 4 3 3 4 3 3 6 5 3 5 7 7 4 3 3 3 2 2 2 1 1 1 1 1 1 1 2 2 2
5 5 6 6 5 5 6 6 5 4 4 4 4 4 4 3 3 2 2 5 7 7 4 5 8 8 7 3 3 2 2 2 2 2 2 2 1 1 1 1 2 2 2 2
5 5 5 5 5 5 5 6 5 5 5 4 4 4 3 2 3 3 3 3 6 7 4 5 8 8 5 3 2 2 2 2 2 2 1 2 2 1 1 1 2 2 2 2
4 4 4 4 4 4 4 4 4 4 4 4 4 4 3 3 3 3 3 3 4 6 4 3 4 5 3 3 2 2 2 3 3 2 2 2 2 2 2 2 3 2 2 3
4 4 3 4 4 4 4 4 4 4 4 4 5 4 4 4 4 4 4 3 3 3 3 3 3 3 3 2 2 3 2 2 2 2 2 2 2 2 2 3 3 3 3 3
Wind_Direction
277 285 285 276 273 254 240 241 250 269 276 297 323 328 329 341 350 347 336 330 331 330 322 319 328 311 255 226 201 206 212 215 212 198 196 199 202 197 189 193 205 200 201 204
282 276 276 275 278 265 255 254 261 276 283 312 328 334 335 337 332 320 317 308 300 309 303 287 296 305 303 273 230 206 209 223 219 199 203 204 208 204 194 193 200 189 195 197
277 289 288 268 267 256 254 261 261 267 286 322 330 331 324 328 334 327 324 326 320 307 287 283 279 283 277 282 264 220 216 217 205 209 211 209 206 205 200 195 191 188 192 185
274 290 249 253 19 330 268 289 300 300 315 326 315 307 309 334 339 325 321 319 319 318 301 290 294 297 285 285 259 217 216 215 205 201 206 191 180 199 201 182 177 174 174 172
255 258 270 307 353 336 293 299 345 330 328 335 330 320 326 358 347 330 322 317 312 310 314 316 306 293 285 288 253 210 213 214 205 198 190 172 176 183 184 166 160 154 154 143
250 260 268 333 342 327 303 294 1 350 336 336 344 327 312 333 335 334 331 325 323 330 333 325 321 324 297 295 269 231 220 208 181 177 173 172 170 159 146 139 140 129 119 116
256 257 270 345 343 354 32 313 336 337 331 330 322 303 309 323 330 331 330 329 334 341 333 325 331 342 310 306 282 272 280 108 127 134 135 130 124 122 122 118 110 108 103 92
286 271 289 2 9 5 313 325 331 332 331 327 320 321 323 322 324 327 331 334 341 341 333 331 331 332 308 307 310 354 76 98 116 116 104 93 95 95 106 116 112 106 102 89
257 268 324 360 334 324 331 327 329 328 328 327 324 325 326 325 325 326 327 332 339 336 333 329 335 345 335 322 344 93 108 110 107 105 102 102 105 104 105 113 119 114 106 96
293 297 323 330 334 333 332 329 328 327 327 329 327 325 327 327 328 329 331 334 335 338 338 338 353 1 356 353 31 93 104 109 110 108 101 97 93 94 101 105 112 110 108 104
287 307 325 333 340 337 335 333 331 330 331 331 327 325 326 323 324 327 330 335 341 346 347 347 1 10 9 15 50 77 80 80 88 98 111 105 93 88 97 88 109 115 119 126
302 326 316 311 323 330 331 330 328 326 325 327 324 323 327 325 324 331 335 339 347 354 356 358 18 24 20 21 45 81 84 77 81 87 94 100 97 74 60 72 62 58 61 69
306 313 309 310 321 328 322 320 321 318 314 317 321 322 322 321 326 333 334 337 347 356 4 14 29 28 20 22 42 65 74 70 76 83 89 93 98 98 79 55 54 50 51 56
326 325 313 317 316 317 318 318 317 315 318 321 324 327 329 332 333 336 337 338 349 6 15 25 36 26 16 23 43 58 61 61 62 67 73 77 81 83 88 87 67 43 39 51
332 325 309 310 314 318 320 322 323 325 329 333 336 337 340 338 332 335 342 349 5 19 19 24 28 18 13 26 44 53 57 61 61 63 66 68 69 72 72 68 66 55 40 38
320 320 321 324 325 327 328 329 327 325 328 332 336 338 340 341 348 356 4 12 20 21 17 22 21 13 14 28 44 52 57 55 54 57 60 61 62 65 64 62 56 48 37 23
328 328 329 329 327 326 326 326 325 327 333 338 341 344 351 0 9 13 15 20 24 25 23 24 18 14 20 34 47 49 51 54 50 55 59 58 58 59 60 59 53 44 29 19
317 313 315 314 316 319 324 330 334 339 341 340 345 353 1 7 10 10 12 17 26 30 27 22 20 23 29 34 41 46 50 50 48 56 58 56 54 53 57 54 47 39 23 18
328 327 327 328 325 322 326 332 336 340 344 350 355 359 3 8 13 13 16 23 25 23 15 19 22 29 29 28 29 39 45 45 40 39 44 45 42 41 43 42 34 21 12 13
334 337 338 339 342 342 340 339 341 346 351 357 360 4 6 9 12 15 21 25 21 15 9 13 18 24 23 20 21 33 39 42 40 37 37 36 34 29 25 23 19 11 6 3
336 338 341 342 344 347 347 347 352 354 355 2 4 359 357 359 4 10 14 13 9 9 12 14 17 16 15 12 15 30 35 36 33 32 25 22 24 24 17 15 9 0 356 356
333 335 339 341 344 344 348 355 358 358 359 359 358 357 359 357 358 3 9 5 1 2 7 11 11 8 8 7 16 27 29 25 18 17 15 10 12 11 7 7 0 351 347 345
332 334 337 340 338 336 344 354 355 356 355 354 354 352 348 343 344 349 349 358 3 1 4 4 358 1 3 11 17 19 17 13 6 359 355 353 351 355 353 346 342 338 333 328
332 334 334 335 337 344 348 347 349 349 347 342 348 349 344 340 344 352 349 346 352 353 359 353 357 1 5 15 12 9 5 359 352 348 352 352 352 354 345 336 331 324 319 316
332 330 334 340 344 342 340 340 343 347 348 349 353 357 352 345 338 338 342 344 345 350 354 351 352 355 2 1 359 355 349 341 337 340 345 343 339 337 328 320 315 312 312 307
328 326 325 326 326 327 331 338 342 343 344 345 348 351 349 347 345 342 342 344 344 343 346 342 341 345 351 348 344 339 335 335 340 343 336 330 323 319 312 309 306 301 300 298
327 327 330 336 344 345 345 345 343 341 342 339 336 340 343 344 344 345 342 340 338 339 337 337 339 339 336 333 330 327 325 324 322 319 318 313 309 306 306 304 301 300 298 294